Location: Boursonne
(49.2024°N, 3.0468°E)
Time: 22:23:26
(UTC+00:00)

Cosmos 1271 Rocket - Pass Details

Date: 03 March 2021
Orbit: 498 x 544 km, 81.2° (Epoch: 14 April)

Event Time Altitude Azimuth Distance (km) Brightness Sun altitude
Rises 18:28:38 0° 341° (NNW) 2,603 6.5 -9.7°
Reaches altitude 10° 18:30:51 10° 334° (NNW) 1,714 5.7 -10.0°
Maximum altitude 18:34:21 39° 265° (W) 763 4.2 -10.6°
Drops below altitude 10° 18:37:52 10° 195° (SSW) 1,708 5.5 -11.2°
Sets 18:40:04 0° 188° (S) 2,592 6.3 -11.5°
